This demonstration page uses our WeatherBlox Daily Observations layout. Learn more.

Left ArrowRight Arrow

53.62937, 11.41316

Hourly Observations for May 7, 2019

Temp ( °F °C ) Dew Point ( °F °C ) Humidity (%) Winds ( mph kmh ) Pressure ( in mb ) Visibility ( mi km ) Precip ( " mm )
6:50 am 06:50 Mostly Sunny 37 3 34 1 87 87 W 5 7 30.03 1017 7 11 N/A
7:20 am 07:20 Mostly Sunny 39 4 34 1 81 81 WSW 3 6 30.03 1017 7 11 N/A
7:50 am 07:50 Mostly Sunny 41 5 36 2 81 81 WSW 8 13 30.03 1017 7 11 N/A
8:20 am 08:20 Mostly Sunny 43 6 36 2 76 76 W 8 13 30.03 1017 7 11 N/A
8:50 am 08:50 Mostly Sunny 45 7 34 1 66 66 W 9 15 30.03 1017 30 48 N/A
9:20 am 09:20 Mostly Sunny 46 8 34 1 62 62 W 10 17 30.03 1017 30 48 N/A
9:50 am 09:50 Partly Cloudy 46 8 32 0 57 57 W 10 17 30.03 1017 30 48 N/A
10:20 am 10:20 Partly Cloudy 46 8 32 0 57 57 W 9 15 30.03 1017 30 48 N/A
10:50 am 10:50 Partly Cloudy 50 10 32 0 50 50 W 12 19 30.03 1017 30 48 N/A
11:20 am 11:20 Partly Cloudy with Showers Nearby 48 9 28 -2 46 46 WSW 12 19 30.03 1017 30 48 N/A
11:50 am 11:50 Partly Cloudy 46 8 32 0 57 57 VRB 7 11 30.03 1017 30 48 N/A
12:20 pm 12:20 Partly Cloudy 50 10 28 -2 43 43 WSW 9 15 30.03 1017 30 48 N/A
12:50 pm 12:50 Partly Cloudy 52 11 32 0 47 47 W 10 17 30.03 1017 30 48 N/A
1:20 pm 13:20 Partly Cloudy 54 12 30 -1 41 41 W 13 20 30.00 1016 30 48 N/A
1:50 pm 13:50 Partly Cloudy 52 11 28 -2 41 41 W 13 20 30.00 1016 30 48 N/A
2:20 pm 14:20 Partly Cloudy 52 11 28 -2 41 41 W 12 19 30.00 1016 30 48 N/A
2:50 pm 14:50 Partly Cloudy 52 11 30 -1 44 44 WSW 14 22 30.00 1016 30 48 N/A
3:20 pm 15:20 Mostly Sunny 54 12 28 -2 38 38 WSW 10 17 30.00 1016 30 48 N/A
3:50 pm 15:50 Mostly Sunny 52 11 30 -1 44 44 W 13 20 30.00 1016 7 11 N/A
4:20 pm 16:20 Mostly Sunny 54 12 28 -2 38 38 W 9 15 30.00 1016 7 11 N/A
4:50 pm 16:50 Mostly Sunny 54 12 27 -3 35 35 W 9 15 29.97 1015 7 11 N/A
5:20 pm 17:20 Mostly Sunny 52 11 28 -2 41 41 W 9 15 29.97 1015 7 11 N/A
5:50 pm 17:50 Mostly Sunny 52 11 27 -3 38 38 W 8 13 29.97 1015 7 11 N/A
6:20 pm 18:20 Mostly Sunny 54 12 28 -2 38 38 WSW 12 19 29.97 1015 7 11 N/A
6:50 pm 18:50 Mostly Sunny 52 11 30 -1 44 44 W 6 9 29.97 1015 7 11 N/A
7:20 pm 19:20 Mostly Sunny 50 10 30 -1 47 47 WNW 5 7 29.97 1015 7 11 N/A
7:50 pm 19:50 Mostly Sunny 52 11 30 -1 44 44 VRB 2 4 29.97 1015 7 11 N/A
8:20 pm 20:20 Mostly Sunny 50 10 32 0 50 50 VRB 2 4 29.97 1015 7 11 N/A
8:50 pm 20:50 Mostly Sunny 48 9 30 -1 50 50 VRB 1 2 29.97 1015 7 11 N/A

Powered by AerisWeather